Date String (YYYY-MM-DD hh:mm:ss) UTC,Instrument flags,Ambient pressure (hPa),Sample flow (lpm),Bypass flow (lpm),Sample temperature (°C),Ambient temperature (°C),ASC tube jacket temperature (°C),LED temperature (°C),Box temperature (°C),Sample RH (%),Span deviation,Mass concentration (μg/m³),Mass concentration (μg/m³),Mass concentration (μg/m³)
DateTimeUTC,F1_M11,P_M11,Q1_M11,Q2_M11,T1_M11,T2_M11,T3_M11,T4_M11,T5_M11,U1_M11,ZSPAN_M11,X0_M11,X2_M11,X1_M11
2021-10-13 16:00:00,,0816.3,5.01,0.00,21.9,21.4,00.0,31.0,23.7,19.0,0000.0,0007.41,0001.59,0000.80
2021-10-13 16:01:00,,0816.2,4.99,0.00,21.9,21.4,00.0,31.1,23.7,19.0,0000.0,0007.41,0001.59,0000.81
2021-10-13 16:02:00,,0816.1,5.00,0.00,21.9,21.4,00.0,31.1,23.7,18.6,0000.0,0007.55,0001.61,0000.81
2021-10-13 16:03:00,,0816.1,5.02,0.00,21.9,21.4,00.0,31.1,23.7,18.4,0000.0,0006.42,0001.62,0000.82
2021-10-13 16:04:00,,0816.1,4.99,0.00,21.9,21.4,00.0,31.1,23.7,19.1,0000.0,0006.35,0001.66,0000.83
2021-10-13 16:05:00,,0816.2,5.00,0.00,22.0,21.4,00.0,31.1,23.7,19.1,0000.0,0005.94,0001.68,0000.82
2021-10-13 16:06:00,,0816.3,5.00,0.00,22.0,21.4,00.0,31.1,23.8,19.3,0000.0,0005.01,0001.62,0000.82
2021-10-13 16:07:00,,0816.3,5.01,0.00,22.0,21.4,00.0,31.1,23.8,18.9,0000.0,0004.81,0001.58,0000.82
2021-10-13 16:08:00,,0816.4,5.00,0.00,22.0,21.4,00.0,31.1,23.8,18.8,0000.0,0004.52,0001.55,0000.81
2021-10-13 16:09:00,,0816.4,5.01,0.00,22.0,21.5,00.0,31.1,23.8,18.8,0000.0,0004.43,0001.56,0000.82
2021-10-13 16:10:00,,0816.4,4.99,0.00,22.0,21.5,00.0,31.1,23.8,18.6,0000.0,0004.55,0001.56,0000.82
2021-10-13 16:11:00,,0816.4,5.00,0.00,22.0,21.5,00.0,31.1,23.8,18.5,0000.0,0004.37,0001.57,0000.82
2021-10-13 16:12:00,,0816.4,5.00,0.00,22.0,21.5,00.0,31.1,23.8,18.3,0000.0,0004.14,0001.57,0000.82
2021-10-13 16:13:00,,0816.4,5.01,0.00,22.0,21.5,00.0,31.1,23.8,18.7,0000.0,0003.95,0001.57,0000.83
2021-10-13 16:14:00,,0816.4,4.99,0.00,22.0,21.5,00.0,31.1,23.8,18.2,0000.0,0003.77,0001.53,0000.84
2021-10-13 16:15:00,,0816.4,4.99,0.00,22.0,21.5,00.0,31.1,23.8,18.2,0000.0,0003.62,0001.46,0000.84
2021-10-13 16:16:00,,0816.4,5.00,0.00,22.0,21.5,00.0,31.1,23.9,18.1,0000.0,0003.37,0001.41,0000.83
2021-10-13 16:17:00,,0816.4,5.00,0.00,22.0,21.5,00.0,31.1,23.9,18.4,0000.0,0003.77,0001.43,0000.84
2021-10-13 16:18:00,,0816.3,4.99,0.00,22.0,21.5,00.0,31.1,23.9,18.1,0000.0,0004.24,0001.43,0000.86
2021-10-13 16:19:00,,0816.4,5.00,0.00,22.1,21.5,00.0,31.1,23.9,18.0,0000.0,0004.47,0001.45,0000.88
2021-10-13 16:20:00,,0816.4,5.00,0.00,22.1,21.6,00.0,31.1,23.9,17.9,0000.0,0004.65,0001.46,0000.88
2021-10-13 16:21:00,,0816.4,5.00,0.00,22.1,21.6,00.0,31.2,24.0,18.1,0000.0,0004.61,0001.48,0000.89
2021-10-13 16:22:00,,0816.5,4.99,0.00,22.1,21.6,00.0,31.2,24.0,18.7,0000.0,0004.52,0001.43,0000.90
2021-10-13 16:23:00,,0816.5,5.01,0.00,22.1,21.6,00.0,31.2,24.0,18.7,0000.0,0004.86,0001.42,0000.90
2021-10-13 16:24:00,,0816.6,4.99,0.00,22.2,21.6,00.0,31.2,24.0,18.4,0000.0,0005.28,0001.43,0000.91
2021-10-13 16:25:00,,0816.5,5.01,0.00,22.2,21.7,00.0,31.2,24.0,18.3,0000.0,0005.28,0001.43,0000.91
2021-10-13 16:26:00,,0816.5,4.99,0.00,22.2,21.7,00.0,31.2,24.0,18.6,0000.0,0005.38,0001.45,0000.91
2021-10-13 16:27:00,,0816.4,5.00,0.00,22.2,21.7,00.0,31.2,24.1,17.8,0000.0,0005.28,0001.46,0000.93
2021-10-13 16:28:00,,0816.5,4.99,0.00,22.2,21.7,00.0,31.2,24.1,18.1,0000.0,0004.54,0001.42,0000.92
2021-10-13 16:29:00,,0816.4,5.00,0.00,22.2,21.7,00.0,31.3,24.1,17.5,0000.0,0003.92,0001.41,0000.92
2021-10-13 16:30:00,,0816.4,5.00,0.00,22.3,21.7,00.0,31.3,24.1,18.0,0000.0,0003.76,0001.40,0000.91
2021-10-13 16:31:00,,0816.4,4.99,0.00,22.3,21.7,00.0,31.3,24.1,18.6,0000.0,0004.06,0001.39,0000.91
2021-10-13 16:32:00,,0816.3,5.00,0.00,22.3,21.8,00.0,31.3,24.1,18.4,0000.0,0004.69,0001.39,0000.91
2021-10-13 16:33:00,,0816.4,5.01,0.00,22.3,21.8,00.0,31.3,24.1,18.5,0000.0,0004.85,0001.37,0000.90
2021-10-13 16:34:00,,0816.5,4.99,0.00,22.3,21.8,00.0,31.3,24.1,18.6,0000.0,0004.63,0001.36,0000.90
2021-10-13 16:35:00,,0816.5,4.99,0.00,22.3,21.8,00.0,31.3,24.1,18.4,0000.0,0004.31,0001.44,0000.91
2021-10-13 16:36:00,,0816.5,5.01,0.00,22.3,21.8,00.0,31.3,24.1,18.5,0000.0,0004.59,0001.51,0000.93
2021-10-13 16:37:00,,0816.5,5.00,0.00,22.3,21.8,00.0,31.4,24.1,18.8,0000.0,0005.63,0001.51,0000.93
2021-10-13 16:38:00,,0816.5,4.99,0.00,22.4,21.8,00.0,31.4,24.2,18.6,0000.0,0006.32,0001.55,0000.94
2021-10-13 16:39:00,,0816.5,5.00,0.00,22.4,21.8,00.0,31.4,24.2,18.5,0000.0,0006.57,0001.60,0000.96
2021-10-13 16:40:00,,0816.5,5.00,0.00,22.4,21.8,00.0,31.4,24.2,18.1,0000.0,0006.74,0001.64,0000.98
2021-10-13 16:41:00,,0816.5,4.98,0.00,22.4,21.8,00.0,31.4,24.2,18.2,0000.0,0006.80,0001.64,0000.98
2021-10-13 16:42:00,,0816.5,5.00,0.00,22.4,21.8,00.0,31.4,24.2,18.4,0000.0,0006.40,0001.71,0001.00
2021-10-13 16:43:00,,0816.5,5.00,0.00,22.4,21.8,00.0,31.4,24.1,18.5,0000.0,0005.93,0001.74,0001.02
2021-10-13 16:44:00,,0816.6,5.00,0.00,22.4,21.8,00.0,31.4,24.2,18.7,0000.0,0006.00,0001.79,0001.05
2021-10-13 16:45:00,,0816.5,5.01,0.00,22.4,21.8,00.0,31.4,24.2,18.3,0000.0,0006.09,0001.86,0001.07
2021-10-13 16:46:00,,0816.6,5.00,0.00,22.4,21.8,00.0,31.5,24.2,18.4,0000.0,0005.92,0001.83,0001.09
2021-10-13 16:47:00,,0816.5,4.99,0.00,22.4,21.8,00.0,31.5,24.2,18.5,0000.0,0005.65,0001.77,0001.09
2021-10-13 16:48:00,,0816.4,5.01,0.00,22.4,21.8,00.0,31.5,24.2,18.1,0000.0,0004.81,0001.77,0001.10
2021-10-13 16:49:00,,0816.5,4.99,0.00,22.4,21.8,00.0,31.5,24.2,18.4,0000.0,0004.30,0001.74,0001.10
2021-10-13 16:50:00,,0816.5,5.00,0.00,22.4,21.9,00.0,31.5,24.2,18.6,0000.0,0005.39,0001.71,0001.10
2021-10-13 16:51:00,,0816.5,4.99,0.00,22.4,21.9,00.0,31.5,24.2,18.0,0000.0,0005.50,0001.71,0001.09
2021-10-13 16:52:00,,0816.5,5.00,0.00,22.5,21.9,00.0,31.5,24.3,18.2,0000.0,0006.25,0001.75,0001.10
2021-10-13 16:53:00,,0816.6,5.01,0.00,22.5,21.9,00.0,31.5,24.3,17.3,0000.0,0006.29,0001.72,0001.09
2021-10-13 16:54:00,,0817.0,5.01,0.00,22.5,21.9,00.0,31.5,24.3,16.9,0000.0,0006.59,0001.69,0001.09
2021-10-13 16:55:00,,0816.6,4.98,0.00,22.5,21.9,00.0,31.5,24.3,17.3,0000.0,0006.69,0001.68,0001.09
2021-10-13 16:56:00,,0816.7,5.01,0.00,22.5,22.0,00.0,31.5,24.3,17.0,0000.0,0006.61,0001.66,0001.07
2021-10-13 16:57:00,,0816.7,4.99,0.00,22.6,22.0,00.0,31.5,24.4,16.5,0000.0,0006.66,0001.70,0001.08
2021-10-13 16:58:00,,0816.9,5.01,0.00,22.6,22.1,00.0,31.6,24.4,16.4,0000.0,0006.77,0001.71,0001.08
2021-10-13 16:59:00,,0816.6,4.99,0.00,22.6,22.1,00.0,31.6,24.5,16.3,0000.0,0007.76,0001.75,0001.10
